Vorticity
-1 3 10 2 3 11 6 -1 5 9 8 6 8 6 -4 -0 4 10 2 9 11 17 17 14 10 8 5
-5 17 5 0 6 8 -1 2 13 7 13 11 10 9 17 15 21 21 18 15 12 6 4 4 6 4 6
-6 21 7 -2 -0 3 12 7 6 16 14 13 15 15 17 14 9 10 6 3 3 4 4 7 6 7 7
4 19 5 6 4 6 8 14 15 12 11 9 10 10 11 2 10 1 4 6 4 4 4 4 8 9 8
4 15 8 13 9 9 8 15 13 13 11 13 12 11 6 12 3 1 8 5 5 5 4 6 10 11 12
-1 6 7 3 7 -0 20 10 10 11 10 7 6 9 11 3 1 7 8 4 0 6 8 10 10 9 9
22 7 6 -3 -2 9 10 4 7 6 9 6 8 5 3 2 5 9 0 2 10 10 6 9 9 8 8
5 5 5 -0 5 7 9 5 5 5 9 11 12 6 6 7 8 1 3 6 9 3 9 9 6 5 5
11 12 9 10 9 11 8 5 4 2 5 13 11 5 3 5 8 5 5 6 6 1 6 3 5 5 5
10 8 9 8 9 9 5 5 7 8 11 4 15 8 3 3 6 7 5 4 5 2 2 -0 -3 2 3
13 12 11 11 11 9 7 7 6 5 7 9 18 13 5 6 5 5 6 6 3 2 2 2 3 -1 1
14 14 14 14 14 11 12 14 9 7 6 10 11 12 6 4 5 2 3 5 5 5 3 2 3 2 1
10 15 14 10 10 9 10 9 11 9 8 6 5 4 6 7 6 4 4 4 6 8 8 8 8 6 6
9 7 4 4 5 4 5 7 9 10 12 14 14 12 11 10 11 10 12 7 4 5 7 7 8 6 9
7 8 9 9 10 13 12 11 9 7 8 8 8 10 13 14 15 13 13 12 13 12 11 10 7 8 9
10 9 8 8 8 6 6 7 7 7 7 4 1 2 2 2 6 8 8 9 8 9 11 12 8 6 12
11 9 8 7 7 7 7 8 8 10 9 9 10 11 11 10 7 4 7 9 14 13 14 25 27 35 31
Height
5664 5665 5667 5670 5673 5675 5678 5680 5682 5685 5687 5689 5690 5692 5693 5695 5697 5698 5700 5701 5701 5702 5703 5704 5706 5709 5711
5644 5645 5648 5652 5655 5657 5659 5663 5664 5666 5667 5670 5672 5674 5675 5676 5677 5678 5679 5682 5683 5685 5686 5688 5688 5691 5692
5625 5627 5629 5632 5635 5637 5640 5642 5643 5645 5647 5649 5651 5653 5655 5657 5658 5660 5663 5664 5666 5668 5669 5669 5670 5671 5673
5606 5608 5610 5612 5615 5617 5620 5621 5623 5623 5625 5628 5630 5633 5636 5639 5641 5643 5645 5646 5648 5649 5651 5651 5651 5652 5652
5585 5588 5590 5592 5595 5596 5599 5600 5603 5604 5607 5608 5612 5614 5617 5619 5621 5623 5625 5627 5628 5629 5630 5631 5632 5632 5633
5563 5566 5568 5571 5573 5576 5578 5580 5583 5583 5586 5590 5591 5595 5597 5599 5601 5603 5604 5606 5607 5608 5609 5609 5610 5611 5612
5543 5546 5547 5549 5552 5553 5555 5558 5561 5563 5566 5570 5569 5573 5575 5577 5580 5582 5584 5584 5585 5586 5587 5588 5589 5589 5590
5518 5521 5524 5526 5529 5531 5533 5537 5541 5543 5543 5548 5549 5552 5553 5556 5557 5558 5561 5562 5562 5563 5564 5565 5566 5567 5568
5493 5497 5499 5501 5504 5507 5512 5513 5518 5521 5521 5523 5528 5528 5529 5533 5535 5535 5537 5539 5540 5540 5540 5541 5541 5541 5542
5468 5473 5475 5479 5481 5483 5487 5490 5493 5497 5499 5498 5500 5503 5508 5510 5510 5512 5513 5514 5514 5515 5514 5514 5514 5514 5515
5445 5449 5452 5455 5458 5460 5463 5465 5470 5474 5475 5471 5475 5479 5482 5486 5486 5487 5488 5488 5488 5487 5487 5486 5484 5482 5484
5421 5426 5428 5431 5434 5436 5438 5438 5442 5447 5449 5448 5450 5451 5454 5458 5461 5461 5462 5461 5461 5461 5459 5456 5453 5451 5449
5398 5401 5403 5406 5408 5411 5412 5414 5415 5420 5423 5421 5422 5424 5426 5430 5433 5433 5432 5434 5431 5430 5426 5425 5425 5422 5419
5373 5377 5379 5381 5384 5384 5386 5388 5389 5395 5397 5395 5391 5392 5396 5399 5401 5403 5403 5404 5400 5396 5392 5391 5392 5387 5383
5348 5351 5352 5355 5358 5357 5359 5361 5363 5369 5373 5372 5365 5364 5365 5369 5372 5373 5374 5372 5369 5364 5358 5354 5358 5352 5345
5321 5324 5326 5328 5331 5332 5333 5334 5335 5339 5342 5345 5341 5337 5336 5343 5345 5344 5339 5338 5338 5332 5324 5315 5320 5319 5309
5292 5295 5297 5300 5303 5306 5307 5308 5309 5310 5312 5316 5313 5307 5302 5308 5322 5312 5302 5302 5303 5298 5288 5282 5276 5280 5274